Tracking 28125 objects as of 3-Oct-2023
HD Live streaming from Space Station
objects crossing your sky now

STARLINK-5248

Track STARLINK-5248 now!
10-day predictions
STARLINK-5248 is classified as:


NORAD ID: 54174
Int'l Code: 2022-141T
Perigee: 546.1 km
Apogee: 547.7 km
Inclination: 53.2 °
Period: 95.4 minutes
Semi major axis: 6917 km
RCS: Unknown
Launch date: October 28, 2022
Source: United States (US)
Launch site: AIR FORCE WESTERN TEST RANGE (AFWTR)
Your satellite tracking list
Your tracking list is empty




NASA's NSSDC Master Catalog

Two Line Element Set (TLE):
1 54174U 22141T   23275.62293228 -.00003265  00000-0 -18719-3 0  9991
2 54174  53.2167 340.0411 0001173  82.0247 278.0878 15.08831357 52418
Source of the keplerian elements: AFSPC